Погода в Мадмасе

Россия / Республика Коми     62°01′40″N   49°19′09″E
темп.,
°C
ветер,
м/с
пор.,
м/с
влажн.,
%
обл.,
%
осадки,
мм/ч
давл.,
гПа
погр.,
м
10 августа, ср
ср1000:00+12св2268100 0.0 102340
03:00+12ссв2366100 0.0 102362
06:00+15св2863100 0.0 1021248
09:00+13с1493100 1.8 1022182
12:00+13с3994100 3.4 1021535
15:00+12с4997100 5.8 1022485
18:00+11с2897100 0.5 1021334
21:00+11ссз2597100 0.5 1021182
11 августа, чт
чт1100:00+11сз1296100 0.1 102067
03:00+10з2297100 0.1 102051
06:00+12зсз269338 0.0 1020194
09:00+19сз35475 0.0 1019983
12:00+22зсз463316 0.0 10182467
15:00+23зсз46329 0.0 10172480
18:00+20зюз3847100 0.0 1017437
21:00+14юз387264 0.0 1016148
12 августа, пт
пт1200:00+15юз31169100 0.0 1015323
03:00+14юз41273100 0.0 1014403
06:00+16зюз41170100 0.0 1013690
09:00+18з5965100 0.1 1013885
12:00+20з5964100 0.1 10121238
15:00+20з6105849 0.6 10121567
18:00+21зсз4944100 0.0 10121431
21:00+14з3116310 0.0 1013266
13 августа, сб
сб1300:00+11зсз2876100 0.0 1015169
03:00+11зсз311805 0.0 1017400
06:00+12зсз39710 0.0 1019553
09:00+16сз48444 0.0 10191649
12:00+19сз58358 0.0 10202301
15:00+21сз58315 0.0 10192604
18:00+19сз374239 0.0 1020508
21:00+12сз22595 0.0 102115
14 августа, вс
вс1400:00+9в01715 0.0 102210
03:00+8ююз11775 0.0 102310
06:00+12з12645 0.0 1023113
09:00+18зюз12415 0.0 1023731
12:00+21зюз243611 0.0 10211878
15:00+22зюз3436100 0.0 10201950
18:00+20юз265496 0.0 1019184
21:00+15ююз287189 0.0 1019188